User: anonymous   Login
Location: Sternwarte ZA, Rosenfeld-Brittheim
(48.2889°N, 8.6789°E)
Time: 19:11:18
(UTC+02:00)
Language:

ISS - Orbit

View from above orbital plane
View from above orbital plane
View from above satellite
View from above satellite

Ground track
Ground track

The orbit data is extracted from the following two-line orbital elements,

1 25544U 98067A   22267.36671916  .00008467  00000-0  15481-3 0  9995
2 25544  51.6423 205.2165 0002319 288.7156 217.0844 15.50249678360569
Epoch (UTC): 24 September 2022 08:48:04
Eccentricity: 0.0002319
inclination: 51.6423°
perigee height: 414 km
apogee height: 417 km
right ascension of ascending node: 205.2165°
argument of perigee: 288.7156°
revolutions per day: 15.50249678
mean anomaly at epoch: 217.0844°
orbit number at epoch: 36056

The dashed part of the orbit path shows where the satellite is in the earth's shadow,  

DLR